Regional Weather Roundup
Issued by NWS

Home | Current Version | Previous Version | Graphics & Text | Print | Product List | Glossary On
Versions: 1 2 3 4 5 6 7 8 9 10 11 12 13 14 15 16 17 18 19 20 21 22 23 24 25 26 27 28 29 30 31 32 33 34 35 36 37 38 39 40 41 42 43 44 45 46 47 48 49 50
000
ASUS43 KMPX 231610
RWRMN
WEATHER ROUNDUP FOR MINNESOTA
NATIONAL WEATHER SERVICE TWIN CITIES/CHANHASSEN MN
1100 AM CDT THU MAR 23 2017


NOTE: "FAIR" INDICATES FEW OR NO CLOUDS BELOW 12,000 FEET WITH NO
SIGNIFICANT WEATHER AND/OR OBSTRUCTIONS TO VISIBILITY. N/A MEANS
CURRENT SKY AND/OR WEATHER CONDITIONS ARE NOT AVAILABLE.

MNZ060>063-068>070-231700-
   Twin Cities Metro

CITY           SKY/WX    TMP DP  RH WIND       PRES   REMARKS
TWIN CITIES    CLOUDY    39  22  50 S20G26    30.07F
ST PAUL        CLOUDY    39  24  55 SE13G25   30.09F
CRYSTAL        CLOUDY    39  21  48 S20G26    30.04F
BLAINE         CLOUDY    39  25  56 SE18G24   30.06F
LAKEVILLE      CLOUDY    36  27  69 SE10      30.07F
EDEN PRAIRIE   CLOUDY    40  24  53 SE14      30.05F
SOUTH ST PAUL  CLOUDY    39  23  52 S12G18    30.08F
LAKE ELMO      CLOUDY    37  23  56 SE13      30.09F
$$
MNZ001>005-007-008-013>017-022>024-027-028-231700-
   Northwest Minnesota

CITY           SKY/WX    TMP DP  RH WIND       PRES   REMARKS
BEMIDJI        CLOUDY    38  23  54 S12G21    29.91F
HALLOCK        CLOUDY    36  28  75 S15       29.82F
ROSEAU         CLOUDY    37  28  70 S12       29.85S
WARROAD        CLOUDY    37  27  65 S7        29.86F
THIEF RVR FALL   N/A    N/A N/A N/A MISG        N/A
CROOKSTON      CLOUDY    39  28  65 S17       29.85F
FOSSTON        MOSUNNY   37  25  60 S14       29.87F
DETROIT LAKES  MOSUNNY   37  27  65 S17       29.89F
MOORHEAD       MOSUNNY   39  28  65 S22G30    29.87F
PARK RAPIDS    CLOUDY    38  21  50 S17G25    29.93S
MAHNOMEN       DRIZZLE   38  27  63 S17       29.85F
$$
MNZ006-009>011-018-025>026-231700-
   North Central Minnesota

CITY           SKY/WX    TMP DP  RH WIND       PRES   REMARKS
BAUDETTE       CLOUDY    37  22  54 S14G21    29.88F
FLAG ISLAND    CLOUDY    30  25  80 S10       29.86F WCI  21
INTL FALLS     CLOUDY    37  22  54 S14G22    29.93F
WASKISH        CLOUDY    39  25  56 S13G22    29.90F
BIG FORK       CLOUDY    37  23  56 S12G17    29.96S
LONGVILLE      CLOUDY    36  21  55 S9G17     29.97S
GRAND RAPIDS   CLOUDY    35  21  56 SE14      29.99F WCI  26
CRANE LAKE     CLOUDY    34  21  60 S6G17     30.00F WCI  29
ORR            CLOUDY    36  19  51 S13G18    29.95F
COOK           CLOUDY    34  23  64 S13G20    30.00S WCI  25
WALKER         CLOUDY    38  22  53 S10G16    29.94S
$$
MNZ012-019>021-037-231700-
   Northeast Minnesota

CITY           SKY/WX    TMP DP  RH WIND       PRES   REMARKS
DULUTH         CLOUDY    33  25  72 S10       30.04F WCI  25
ELY            CLOUDY    32  23  69 S12G17    30.02S WCI  23
HIBBING        CLOUDY    33  20  58 S13G22    30.00F WCI  24
EVELETH        CLOUDY    34  19  54 S10       30.03S WCI  26
DULUTH HARBOR  CLOUDY    37  27  65 CALM      30.09F
TWO HARBORS    CLOUDY    36  28  75 SE5       30.06F
SILVER BAY     CLOUDY    34  28  80 S5        30.06F WCI  30
GRAND MARAIS     N/A     33  30  88 SW13      30.13F WCI  24
G MARAIS ARPRT MIX PCPN  27  23  86 S7G16     30.07F VSB 1   WCI  19
$$
MNZ029>031-032-039>041-046>048-054>057-064-231700-
   West Central Minnesota

CITY           SKY/WX    TMP DP  RH WIND       PRES   REMARKS
FERGUS FALLS   CLOUDY    37  25  60 S17G26    29.93F
WHEATON        CLOUDY    39  25  56 SE20      29.89F
MORRIS         CLOUDY    39  25  56 SE21      29.91S
ALEXANDRIA     CLOUDY    38  23  55 S16       29.95F
ELBOW LAKE     CLOUDY    38  24  57 SE23      29.91F HAZE
WADENA         CLOUDY    36  23  60 S10       29.94S
GLENWOOD       CLOUDY    37  25  60 SE18      29.95S
APPLETON       CLOUDY    43  25  49 SE14G23   29.90F
BENSON         CLOUDY    41  19  42 S18       29.95S
ORTONVILLE     CLOUDY    39  27  60 SE16G24   29.87F
MADISON        CLOUDY    45  28  53 S17G24    29.88F
WILLMAR        CLOUDY    39  27  60 SE17G24   29.97F
$$
MNZ033>034-036-042>043-049>051-058-059-231700-
   Central Minnesota

CITY           SKY/WX    TMP DP  RH WIND       PRES   REMARKS
ST CLOUD       CLOUDY    39  24  55 SE18      30.01F
SAUK CENTRE    CLOUDY    37  24  60 SE17G23   29.97S
PAYNESVILLE      N/A     37  25  60 SE13G18   29.98F
AITKIN         CLOUDY    39  19  45 S16       29.99R
PINE RIVER     CLOUDY    37  25  60 S15       30.00S
BRAINERD       CLOUDY    38  22  52 S16G24    29.99S
STAPLES        CLOUDY    37  21  52 S15G21    29.96S
LONG PRAIRIE   CLOUDY    36  23  60 SE17      29.96F
LITTLE FALLS   CLOUDY    37  23  56 SE14      29.99F
LITCHFIELD     CLOUDY    39  27  60 SE8G20    29.99F
BUFFALO        CLOUDY    39  24  54 SE13G22   30.03F
MAPLE LAKE     CLOUDY    40  27  60 S12G23    30.03F
HUTCHINSON     CLOUDY    39  27  63 SE12G18   30.01S
$$
MNZ037-044-045-052-053-231700-
   East Central Minnesota

CITY           SKY/WX    TMP DP  RH WIND       PRES   REMARKS
PRINCETON      CLOUDY    43  23  45 SE17      30.03F
MORA           CLOUDY    36  21  55 S10G18    30.05F
CAMBRIDGE      CLOUDY    41  27  56 SE17G23   30.02F
RUSH CITY      CLOUDY    37  25  60 S10G18    30.06F
MOOSE LAKE     CLOUDY    36  23  60 S12G20    30.02F
HINCKLEY       CLOUDY    37  25  60 SE9       30.05F
CLOQUET        CLOUDY    36  21  55 S7        30.03F
MCGREGOR       CLOUDY    36  25  64 S9        30.02F
$$
MNZ071>073-080-081-089-090-097-098-231700-
   Southwest Minnesota

CITY           SKY/WX    TMP DP  RH WIND       PRES   REMARKS
MONTEVIDEO     CLOUDY    39  25  56 S16G23    29.94S
GRANITE FALLS  MOSUNNY   42  28  56 SE21G28   29.95F
CANBY          CLOUDY    44  28  53 E13       29.88F
MARSHALL       CLOUDY    43  25  49 S24       29.89F
REDWOOD FALLS  CLOUDY    39  25  57 SE20      29.97S
OLIVIA         PTSUNNY   37  28  70 SE18G24   29.94F
PIPESTONE      CLOUDY    39  23  52 S14G24    29.87S
WINDOM         MOSUNNY   43  27  52 SE22      29.95F
WORTHINGTON    CLOUDY    39  25  57 SE20G26   29.93F
JACKSON          N/A     41  27  56 SE17G25   29.97F
TRACY          PTSUNNY   43  28  56 S22G35    29.89F
SLAYTON        PTSUNNY   39  27  63 SE24      29.90F
$$
MNZ065>067-074>077-082>085-091>093-231700-
   South Central Minnesota

CITY           SKY/WX    TMP DP  RH WIND       PRES   REMARKS
MANKATO        CLOUDY    37  26  64 SE20      30.01F
NEW ULM        CLOUDY    37  27  65 SE16      29.97F
ST JAMES       CLOUDY    37  28  70 SE23      30.01F
FAIRMONT       CLOUDY    39  27  60 S22G31    29.99F
GLENCOE        CLOUDY    39  29  68 SE14      30.01F
FARIBAULT      CLOUDY    37  25  60 SE12G23   30.06F
OWATONNA       CLOUDY    36  23  60 SE18G25   30.05F
WASECA         CLOUDY    36  28  75 SE22      30.04F
ALBERT LEA     CLOUDY    36  25  64 SE21G26   30.04F
$$
MNZ078>079-086>088-094>096-231700-
   Southeast Minnesota

CITY           SKY/WX    TMP DP  RH WIND       PRES   REMARKS
ROCHESTER      CLOUDY    36  23  59 S22G31    30.09F
RED WING       CLOUDY    39  19  45 S14G21    30.11F
STANTON        CLOUDY    38  24  56 S15G21    30.07F
DODGE CENTER   CLOUDY    36  25  64 SE20G28   30.07F
WINONA         CLOUDY    37  25  60 SE12      30.16F
AUSTIN         CLOUDY    36  25  64 S13G21    30.07F
PRESTON        CLOUDY    36  21  55 SE17G25   30.12F
$$
ABBREVIATIONS USED IN REMARKS
   TC - TEMPERATURES IN CELSIUS
  WCI - WIND CHILL INDEX
   HX - HEAT INDEX
  VSB - VISIBILITY
$$



USA.gov is the U.S. government's official web portal to all federal, state and local government web resources and services.